Temperature
23 22 21 21 20 20 22 24 25 25 24 24 24 23 22 21 21 19 19 20 20 20 19 19 19 19 19 19 19 19 19 19 19 19 19 19 19 19 19 19 19 19 19 19 18 18 18 18 18
23 22 21 21 21 21 23 24 24 25 24 24 23 23 22 21 20 19 19 20 20 20 20 19 19 19 19 19 19 19 19 19 19 19 19 19 19 19 19 19 19 19 19 18 18 18 18 18 18
23 22 22 20 21 22 24 25 25 25 25 24 23 22 21 20 20 19 20 20 20 20 20 20 19 19 19 19 19 19 19 19 19 19 19 19 19 19 19 19 19 19 18 19 18 18 18 18 18
23 22 22 21 23 24 25 25 25 25 25 24 23 22 21 21 20 20 20 20 20 20 20 20 19 19 19 19 19 19 19 19 19 19 19 19 19 19 19 19 19 19 19 19 18 18 18 18 18
23 22 21 22 24 25 26 26 26 25 24 23 22 21 21 21 21 20 20 20 20 20 20 20 20 19 19 19 19 19 19 19 19 19 19 19 19 19 19 19 19 19 19 19 19 18 18 18 18
23 22 22 23 25 26 26 26 25 24 24 23 22 21 20 21 20 20 20 20 20 20 20 20 20 20 20 20 19 19 19 19 19 19 19 19 19 19 19 19 19 19 19 19 19 18 18 18 18
23 22 22 24 25 26 26 26 25 24 24 23 22 21 20 20 21 20 20 20 20 20 20 20 20 20 20 19 19 19 19 19 19 19 19 19 19 19 19 19 19 19 19 19 19 18 18 18 18
24 22 23 25 26 26 27 27 26 25 24 23 23 21 20 21 21 21 20 20 20 20 20 20 20 20 19 19 19 19 19 19 19 19 19 19 19 19 19 19 19 19 19 19 19 19 19 18 18
25 22 23 25 26 26 27 27 26 25 24 24 23 22 22 21 21 20 20 20 20 20 20 20 20 20 19 19 19 19 19 19 19 19 19 19 19 19 19 19 19 19 19 19 19 19 19 18 18
24 22 25 27 27 26 27 27 26 25 24 23 22 22 22 21 21 20 20 20 20 20 20 20 20 20 20 19 19 19 19 19 19 19 19 19 19 19 18 19 19 19 19 19 19 19 18 18 18
25 25 27 28 28 28 27 27 26 25 23 23 22 22 22 21 21 21 21 21 20 20 20 20 20 20 20 19 19 19 19 19 19 19 19 19 19 18 18 18 18 19 19 19 19 19 19 19 19
27 27 28 29 29 28 27 27 26 25 24 24 23 23 22 21 21 21 21 21 21 20 20 20 20 20 20 20 19 19 19 19 19 19 19 19 19 19 19 19 19 19 19 19 19 19 19 19 19
27 28 29 29 29 29 28 27 26 25 25 24 23 22 22 22 21 21 21 21 21 20 20 20 20 20 20 20 19 19 19 19 19 19 19 19 19 19 19 19 19 19 19 19 19 19 19 19 18
28 28 29 29 29 28 27 26 26 25 24 24 23 23 22 22 22 22 21 21 21 21 20 20 20 20 20 20 20 19 19 19 19 19 19 19 19 19 19 19 19 19 19 19 19 18 19 19 18
28 27 27 28 28 27 27 26 25 25 24 24 23 23 23 22 22 22 22 22 21 21 21 20 20 20 20 20 20 19 19 19 19 19 19 19 19 19 19 19 18 18 18 18 18 18 19 18 18
26 25 25 27 27 27 26 24 25 25 25 24 24 23 23 23 23 22 22 22 22 21 21 21 20 20 20 20 20 19 19 19 19 19 19 19 19 19 19 19 19 19 18 19 19 19 18 18 18
24 24 25 26 27 27 26 25 25 25 25 24 24 24 23 23 23 23 22 22 22 21 21 21 21 20 20 20 20 20 19 19 19 19 19 19 19 19 19 19 19 19 19 18 18 18 18 18 18
24 24 25 26 27 27 26 25 25 26 25 25 24 24 23 23 23 23 23 22 22 22 21 21 21 20 20 20 20 20 19 19 19 19 19 19 19 19 19 19 19 19 19 19 19 18 18 18 18
26 26 26 26 27 26 26 26 26 25 25 25 24 24 24 23 23 23 23 22 22 22 21 21 21 20 20 20 20 20 19 19 19 19 19 19 19 19 19 19 19 19 19 19 19 19 19 18 18
27 26 26 26 27 26 25 25 26 25 25 25 24 24 24 23 23 23 23 22 22 22 22 21 21 21 20 20 20 20 20 19 19 19 19 19 19 19 19 19 19 19 19 19 19 19 19 19 18
27 26 26 26 27 26 26 25 25 25 26 25 25 25 24 24 23 23 23 22 22 22 22 21 21 21 21 20 20 20 19 19 19 19 19 19 19 19 19 19 19 19 19 19 19 19 19 19 19
27 28 28 27 25 24 25 23 24 24 25 25 25 25 25 24 24 23 23 23 22 22 22 22 21 21 21 20 20 20 20 19 19 19 19 19 19 19 19 19 19 19 19 19 19 19 19 19 19
28 29 28 27 25 24 24 23 23 24 24 24 25 25 25 25 24 24 23 23 23 23 22 22 21 21 21 20 20 20 20 20 19 19 19 19 19 19 19 19 19 19 19 19 19 19 19 19 19
29 28 26 24 22 23 23 23 23 23 24 25 25 25 25 25 24 24 24 24 23 23 22 22 22 21 21 21 20 20 20 20 20 19 19 19 19 19 19 19 19 19 19 19 19 19 19 19 19
28 24 23 23 22 22 23 24 23 24 25 25 25 25 25 25 25 24 24 23 23 23 23 22 22 21 21 21 21 20 20 20 20 20 20 19 19 19 19 19 19 19 19 19 19 19 19 19 19
26 24 23 23 22 22 23 23 24 25 26 26 26 26 26 25 25 24 24 24 24 23 23 22 22 22 21 21 21 21 20 20 20 20 20 20 19 19 19 19 19 19 19 19 19 19 19 19 19
27 25 24 22 22 22 22 23 25 26 26 25 26 26 25 25 25 24 24 24 24 23 23 23 22 22 22 21 21 21 21 20 20 20 20 19 20 20 19 19 19 19 19 19 19 19 19 19 19
27 25 22 22 22 22 23 23 23 25 25 25 25 25 25 25 25 25 24 24 24 24 23 23 23 22 22 22 21 21 21 20 20 20 20 20 20 20 19 19 19 19 19 19 19 19 19 19 19
26 25 23 20 21 21 22 22 25 24 24 24 24 25 25 24 24 24 24 24 24 23 23 23 23 22 22 22 21 21 21 21 20 20 20 20 20 20 20 19 19 19 19 19 19 19 19 19 19
26 25 22 22 22 20 21 22 25 24 24 24 24 24 25 25 25 24 24 24 24 23 23 23 23 22 22 22 21 21 21 21 20 20 20 20 20 20 20 19 19 19 19 19 19 19 19 19 19
Wind_Speed
11 8 3 1 2 4 3 3 5 7 6 7 10 10 9 7 4 5 2 6 7 5 6 10 13 13 14 15 15 15 15 15 15 16 16 17 17 18 19 20 21 21 22 23 23 22 22 22 21
8 6 2 1 3 3 3 5 8 9 10 11 11 11 9 7 6 8 4 5 6 5 7 11 14 14 15 15 15 15 15 15 16 16 16 16 17 18 19 20 20 21 22 22 22 21 21 21 20
6 3 1 2 1 4 5 6 9 11 11 8 6 7 5 5 6 5 6 8 7 5 8 13 16 15 15 15 15 15 16 16 16 16 16 16 17 18 18 19 19 20 21 21 20 20 20 19 19
3 2 2 3 1 3 6 7 11 11 9 8 9 7 5 5 5 7 10 10 9 6 9 14 16 15 15 15 15 15 16 16 16 16 16 17 17 18 19 19 19 20 20 20 19 18 18 18 17
1 2 3 2 2 4 6 10 11 10 6 9 11 8 5 4 10 12 11 11 10 7 9 13 16 15 15 15 15 15 16 16 16 17 16 17 17 17 18 18 18 18 18 18 17 16 16 16 15
2 2 3 2 4 5 7 11 13 13 13 11 11 9 4 6 11 10 11 10 10 9 8 12 15 15 15 15 15 15 15 15 16 16 17 17 16 16 17 17 17 17 16 16 15 14 14 13 13
3 2 2 4 5 7 8 9 11 12 11 8 9 7 4 5 9 10 9 10 9 8 8 8 10 12 14 15 14 14 14 15 15 15 15 15 15 15 15 15 15 15 15 14 13 13 12 11 10
3 2 1 2 6 7 8 8 10 12 9 11 8 8 6 7 9 9 9 9 8 7 7 6 7 8 9 11 13 14 13 13 14 14 14 14 14 13 13 13 13 13 13 12 12 11 10 9 8
2 2 3 4 7 6 9 10 8 9 11 7 6 8 10 11 11 10 9 8 7 7 5 5 6 6 8 9 11 11 12 11 11 11 12 11 8 9 9 10 11 12 12 11 10 10 9 7 6
4 3 6 5 7 9 10 13 9 8 11 10 11 11 13 12 11 11 11 9 8 8 6 5 5 6 7 7 8 7 7 8 7 6 7 7 7 7 8 9 10 10 10 9 8 8 7 5 4
5 6 4 4 8 11 11 10 8 12 9 13 16 15 13 12 10 9 9 9 9 9 9 7 6 6 6 4 6 5 5 5 5 6 7 6 5 5 5 5 5 6 6 5 5 4 3 3 3
3 3 4 5 8 10 10 8 8 9 11 16 18 17 14 12 10 10 9 8 8 8 8 8 7 5 5 5 5 4 4 4 4 5 7 6 4 3 3 3 3 3 3 3 3 2 2 2 4
2 1 3 6 8 9 10 11 10 9 15 16 17 16 14 12 10 8 8 8 8 8 7 8 7 7 5 4 4 5 4 4 5 6 7 7 4 4 4 3 3 3 3 3 3 3 2 2 3
1 1 3 4 6 7 11 10 9 11 16 16 16 14 13 13 12 9 8 8 8 8 8 7 8 7 6 4 4 4 5 5 5 5 7 8 6 5 4 3 2 2 3 3 3 3 3 2 2
2 3 4 2 4 6 10 6 9 16 17 16 15 13 13 12 12 11 11 10 10 9 8 8 8 6 6 5 5 5 5 6 5 5 7 8 7 6 4 3 2 2 3 4 3 3 2 2 2
5 5 2 2 3 4 8 6 9 15 17 15 14 13 12 11 12 11 11 9 10 10 9 8 8 7 5 5 4 3 4 5 4 5 6 7 8 7 5 3 2 2 3 3 2 2 2 2 2
4 2 2 3 2 3 4 5 10 13 15 14 14 13 12 11 10 10 12 11 11 11 10 8 7 7 5 5 4 3 3 4 4 5 5 6 7 8 5 3 3 3 2 2 2 2 2 2 1
4 2 3 3 3 2 3 5 9 12 14 14 14 13 12 13 12 12 12 12 11 10 10 9 8 7 6 4 3 3 2 2 3 4 5 6 6 7 5 3 3 3 3 2 2 2 2 2 2
7 5 5 5 3 3 4 5 9 12 11 11 12 12 13 13 12 12 12 12 11 9 9 9 8 7 5 4 3 3 2 2 2 3 5 6 6 6 5 3 3 3 3 3 3 2 2 1 2
6 5 5 4 3 3 3 5 7 11 13 13 14 14 14 11 11 12 11 11 11 11 10 10 9 8 7 5 4 3 3 2 3 2 4 6 6 6 5 4 4 4 3 3 3 3 2 1 2
7 8 8 6 2 2 3 2 4 6 8 10 12 13 14 16 16 14 13 12 12 12 12 11 9 9 7 6 4 3 2 1 1 1 2 3 6 6 5 5 4 4 4 4 4 4 4 2 1
7 8 9 8 5 2 3 2 6 6 7 10 11 12 14 15 15 15 14 14 14 13 12 10 10 9 8 7 6 6 4 3 3 2 2 2 4 4 5 5 4 4 4 4 4 4 3 4 2
8 6 5 6 5 2 1 3 6 3 6 10 12 14 16 17 18 18 17 16 15 14 13 11 10 9 8 7 7 6 4 3 2 2 3 3 2 3 4 5 4 3 3 4 4 3 4 3 3
4 2 3 4 4 1 5 3 6 6 11 10 11 13 14 16 16 16 15 14 13 13 12 11 11 9 9 8 8 7 6 5 4 4 3 3 2 2 3 4 3 3 4 4 4 4 4 4 3
3 6 3 4 3 5 5 2 8 8 8 11 13 13 14 15 15 15 15 15 14 15 14 13 12 10 10 9 8 8 7 7 6 5 5 4 2 2 3 4 4 3 3 4 3 3 3 3 3
4 9 8 5 5 5 3 4 8 8 7 8 9 10 12 13 14 16 17 16 16 16 15 14 13 11 11 10 9 8 7 6 4 5 5 5 4 4 4 4 4 4 4 4 3 2 3 2 3
4 4 9 8 3 1 4 6 7 0 4 5 7 8 10 12 13 15 15 15 16 16 15 15 14 12 11 11 9 8 7 6 5 5 4 4 3 4 4 4 4 4 4 3 3 2 2 2 3
6 7 6 6 5 2 4 4 4 4 4 5 7 9 9 9 10 12 13 14 14 14 13 13 13 13 11 10 10 9 7 6 6 5 5 4 4 4 3 3 3 3 3 3 3 2 2 2 2
0 2 4 5 6 6 3 6 5 6 6 7 8 9 9 9 9 9 10 11 11 11 12 12 12 11 10 10 9 8 7 7 6 5 5 5 4 4 4 4 4 3 3 3 3 2 2 2 2
4 4 6 5 3 5 5 6 5 4 5 6 8 8 8 9 8 8 9 9 9 10 11 12 11 11 10 10 9 8 7 7 6 6 6 5 5 4 4 4 4 4 4 3 4 4 3 2 2
Wind_Direction
159 155 155 153 44 48 79 95 103 88 74 72 80 84 82 65 90 124 141 128 126 126 124 120 112 106 102 98 96 95 93 94 96 96 98 101 103 105 111 113 116 118 121 122 124 125 126 126 128
157 163 165 61 69 77 81 106 96 95 120 107 84 81 76 68 79 108 116 132 120 120 127 127 119 112 107 103 100 98 97 96 97 98 100 103 106 107 110 114 118 120 121 123 124 127 129 130 130
162 170 108 60 107 142 135 121 108 103 109 99 90 68 71 97 103 118 140 132 109 103 119 127 121 115 111 106 102 101 100 99 98 100 102 106 108 109 110 114 117 119 121 123 124 127 129 130 132
143 101 51 67 115 166 143 139 122 108 91 83 94 76 70 93 114 128 133 125 112 104 116 124 120 117 113 109 106 105 104 102 102 103 104 108 110 111 112 114 117 119 121 123 125 127 129 130 132
102 85 51 57 98 117 124 127 120 106 96 91 94 97 85 84 113 126 131 128 124 118 117 124 123 121 116 111 109 108 108 106 106 107 107 109 112 113 116 118 120 121 123 124 126 129 130 131 134
83 80 76 112 121 113 114 117 113 106 109 105 104 107 106 123 125 132 132 132 132 130 126 128 127 125 121 116 113 113 112 111 110 110 111 110 110 112 119 121 124 125 125 126 128 131 133 135 136
114 97 178 157 128 123 125 119 118 121 121 123 124 108 128 141 143 142 132 129 132 130 126 127 132 130 126 122 119 119 117 115 116 116 116 115 115 116 121 124 127 129 129 130 132 134 135 135 134
153 102 252 159 129 132 134 118 127 129 119 126 123 127 155 167 146 136 127 125 128 131 131 130 133 131 131 131 127 125 124 123 124 124 124 123 123 123 124 130 135 136 135 136 138 141 141 142 143
134 78 226 179 137 139 133 118 118 109 116 120 114 132 151 146 136 129 125 121 130 135 143 138 138 139 141 142 138 135 132 132 132 129 128 126 126 129 133 141 147 147 146 145 147 148 152 150 143
155 182 211 187 148 143 139 133 133 117 113 107 110 121 133 138 137 137 142 145 149 152 157 156 152 151 156 153 147 151 149 150 147 146 140 138 143 147 144 147 153 152 151 152 158 165 166 157 150
176 195 200 150 136 139 141 138 125 126 132 144 144 147 145 145 143 147 151 152 157 162 162 169 166 163 162 151 154 167 166 164 168 165 159 152 146 149 143 147 155 155 156 162 171 176 178 173 173
169 206 180 162 140 140 149 139 126 139 155 154 150 150 149 150 152 157 156 153 149 150 154 162 162 156 157 152 160 167 160 163 165 167 162 151 142 145 151 158 171 174 176 179 185 179 180 184 185
108 124 120 145 138 141 135 135 130 134 141 145 146 149 155 158 158 163 159 155 147 147 149 150 148 148 145 142 161 158 162 164 163 161 163 155 145 142 148 162 167 173 174 170 168 168 163 168 169
194 101 107 130 114 114 123 130 122 142 145 148 152 156 162 162 162 160 156 154 151 153 152 147 141 145 142 142 150 155 159 155 149 150 153 150 148 149 147 151 157 175 183 178 167 159 161 165 154
30 56 47 98 108 125 110 112 146 154 154 156 161 163 164 165 164 166 168 162 158 157 154 150 145 138 136 139 145 149 157 152 153 156 153 151 150 150 148 147 154 171 172 157 139 129 131 140 140
23 38 19 291 127 138 113 164 174 160 157 162 167 168 167 171 170 170 167 160 152 150 150 154 149 140 138 136 133 139 156 157 162 160 155 156 157 157 151 149 161 159 135 130 126 125 117 127 139
37 40 292 292 201 146 120 178 182 170 165 169 172 171 170 173 172 169 164 160 155 153 151 151 143 145 145 139 132 133 143 154 164 161 160 164 162 161 157 160 164 152 128 132 153 130 135 144 160
224 207 243 249 240 125 135 189 179 182 174 175 176 172 170 175 177 171 166 163 159 157 153 151 149 154 149 133 115 107 119 148 159 162 169 171 167 164 161 165 168 159 143 148 145 141 131 159 187
198 196 226 233 217 144 181 196 183 181 181 181 180 175 176 180 176 168 166 163 156 154 154 152 153 160 148 138 137 136 162 173 168 174 175 174 171 167 162 160 158 161 165 176 168 148 136 159 146
217 210 219 248 215 155 188 220 198 183 190 186 184 182 180 173 170 171 168 166 164 165 164 160 163 165 163 161 158 159 163 173 178 183 176 180 177 172 171 166 173 178 170 171 166 151 146 191 160
242 207 200 196 192 109 113 301 237 205 194 191 185 184 181 178 177 177 175 173 170 171 172 170 169 168 169 161 146 140 111 82 96 160 189 191 181 178 177 177 181 182 178 187 191 172 161 186 225
243 218 182 171 145 223 149 219 267 213 200 194 188 184 183 183 178 179 178 176 179 179 174 168 169 170 172 164 157 156 162 173 192 187 186 188 185 183 183 177 178 177 173 185 199 182 172 165 196
223 205 169 155 146 115 33 151 273 223 210 206 196 191 188 185 181 181 181 181 181 178 174 173 170 173 174 172 171 169 176 182 180 164 161 176 189 190 184 178 176 182 184 189 189 181 179 174 179
204 127 62 58 79 94 243 186 263 219 214 207 198 197 194 189 185 183 182 176 177 176 175 175 174 180 178 176 177 178 181 181 174 177 179 190 195 203 201 190 188 195 192 193 190 186 183 188 187
114 106 47 358 5 255 256 203 248 235 209 196 192 194 193 188 183 179 178 178 177 177 179 179 179 183 184 183 186 186 186 184 185 188 189 188 187 200 214 205 201 201 200 196 184 178 189 189 190
206 144 158 189 217 269 299 234 254 241 205 183 179 181 182 185 184 181 182 180 180 180 179 179 181 184 184 184 189 187 187 187 192 190 184 188 196 206 202 200 204 201 196 196 185 186 200 189 199
183 179 168 143 170 200 274 285 307 351 145 146 158 162 174 182 182 182 181 180 180 181 182 182 182 184 186 187 185 185 188 189 186 182 181 188 200 203 199 201 201 200 193 190 175 188 205 191 202
170 164 105 123 155 217 286 281 256 253 177 155 157 165 169 175 176 181 182 181 181 182 181 180 182 186 187 187 188 191 192 190 184 179 189 194 202 200 186 188 186 181 181 179 174 194 203 191 217
22 102 111 126 147 156 222 270 245 213 184 168 168 164 160 162 168 174 179 177 173 171 173 177 183 183 185 186 188 188 185 185 183 187 198 199 199 193 189 186 183 182 183 183 179 192 184 196 235
159 159 138 147 204 163 167 256 278 187 173 157 154 147 148 152 159 167 166 161 162 168 174 178 179 181 185 185 183 185 182 180 185 197 203 197 197 197 190 184 185 189 192 188 186 202 206 200 220
Height
1497 1498 1498 1500 1501 1508 1508 1500 1493 1492 1493 1494 1493 1495 1498 1501 1505 1512 1509 1507 1506 1504 1503 1502 1502 1502 1502 1501 1501 1500 1500 1499 1499 1499 1499 1499 1500 1500 1501 1502 1504 1506 1508 1510 1513 1516 1519 1521 1524
1497 1497 1499 1500 1506 1518 1511 1497 1494 1493 1495 1494 1496 1498 1500 1503 1505 1507 1507 1507 1505 1501 1499 1500 1502 1503 1503 1503 1503 1502 1501 1501 1501 1501 1501 1501 1502 1503 1504 1505 1507 1509 1511 1514 1516 1519 1522 1525 1527
1497 1498 1499 1501 1508 1513 1508 1496 1494 1494 1495 1494 1497 1500 1503 1506 1507 1507 1508 1507 1504 1500 1498 1499 1502 1505 1505 1505 1505 1504 1504 1503 1503 1503 1503 1503 1504 1506 1507 1509 1510 1512 1515 1517 1520 1522 1525 1528 1530
1498 1499 1500 1505 1507 1499 1495 1494 1492 1494 1496 1496 1498 1503 1506 1508 1508 1508 1509 1508 1506 1503 1501 1503 1505 1507 1507 1507 1507 1507 1506 1505 1505 1505 1505 1506 1507 1508 1510 1511 1514 1516 1518 1521 1523 1525 1528 1530 1533
1498 1499 1504 1509 1503 1495 1492 1492 1493 1494 1497 1499 1500 1505 1509 1510 1510 1510 1510 1510 1509 1507 1507 1508 1509 1509 1510 1509 1509 1509 1509 1508 1508 1508 1508 1509 1510 1511 1513 1515 1517 1520 1522 1524 1526 1529 1531 1533 1535
1500 1500 1511 1513 1502 1494 1492 1492 1494 1496 1499 1502 1503 1506 1511 1512 1511 1512 1512 1512 1512 1511 1511 1512 1512 1512 1512 1512 1512 1512 1512 1511 1511 1512 1512 1513 1515 1516 1517 1519 1521 1523 1525 1527 1529 1532 1534 1536 1538
1500 1503 1509 1505 1501 1497 1494 1493 1494 1497 1500 1502 1503 1507 1511 1513 1513 1513 1513 1514 1514 1514 1514 1514 1515 1515 1515 1515 1515 1515 1515 1515 1515 1516 1517 1518 1519 1520 1521 1523 1524 1526 1528 1530 1532 1534 1536 1538 1540
1498 1502 1505 1501 1500 1498 1494 1494 1496 1497 1500 1503 1504 1506 1510 1512 1513 1514 1515 1516 1516 1516 1517 1517 1517 1517 1517 1517 1518 1518 1518 1519 1519 1520 1521 1521 1522 1523 1525 1526 1528 1529 1531 1533 1535 1537 1539 1541 1542
1498 1506 1508 1500 1498 1496 1492 1494 1498 1499 1501 1503 1505 1506 1509 1512 1514 1515 1516 1517 1518 1518 1519 1519 1519 1520 1520 1520 1521 1521 1521 1522 1522 1523 1524 1525 1525 1526 1527 1529 1530 1532 1534 1536 1537 1539 1540 1542 1543
1496 1506 1498 1489 1488 1491 1491 1492 1496 1500 1502 1505 1507 1509 1511 1513 1514 1515 1516 1517 1518 1519 1520 1521 1521 1521 1522 1522 1523 1523 1524 1524 1525 1526 1526 1527 1528 1529 1530 1531 1533 1535 1536 1538 1540 1541 1542 1544 1545
1491 1494 1487 1485 1486 1488 1491 1493 1495 1498 1504 1504 1505 1508 1511 1513 1514 1516 1517 1518 1519 1520 1521 1522 1522 1523 1523 1524 1525 1525 1526 1527 1527 1528 1529 1530 1531 1532 1533 1534 1535 1537 1538 1540 1541 1542 1544 1545 1546
1488 1486 1484 1484 1485 1488 1490 1493 1496 1497 1501 1503 1504 1507 1510 1512 1514 1516 1517 1518 1520 1521 1522 1523 1523 1524 1525 1526 1526 1527 1527 1528 1529 1530 1531 1532 1532 1533 1534 1536 1537 1538 1540 1541 1542 1543 1544 1545 1547
1486 1485 1484 1483 1484 1487 1490 1492 1495 1499 1501 1504 1506 1508 1510 1512 1514 1516 1517 1519 1520 1521 1522 1523 1524 1525 1526 1526 1527 1528 1529 1530 1530 1531 1532 1533 1534 1534 1535 1537 1538 1539 1541 1542 1543 1544 1545 1546 1547
1485 1484 1484 1484 1485 1488 1491 1494 1495 1501 1502 1505 1507 1508 1510 1512 1514 1516 1517 1518 1519 1521 1522 1524 1525 1526 1526 1527 1528 1529 1530 1531 1531 1532 1533 1534 1534 1535 1536 1538 1539 1540 1541 1542 1543 1545 1545 1547 1547
1484 1486 1487 1486 1487 1490 1492 1499 1497 1499 1502 1505 1507 1508 1510 1512 1513 1514 1516 1517 1519 1520 1522 1524 1525 1526 1527 1527 1528 1529 1530 1531 1532 1533 1534 1534 1535 1536 1537 1539 1540 1541 1542 1543 1544 1545 1546 1547 1548
1488 1494 1500 1491 1488 1490 1496 1508 1498 1499 1500 1503 1505 1508 1509 1511 1512 1514 1515 1516 1518 1520 1521 1523 1525 1526 1527 1528 1529 1530 1531 1532 1532 1533 1534 1535 1536 1537 1538 1539 1540 1541 1542 1543 1544 1545 1546 1546 1547
1500 1508 1505 1495 1487 1488 1494 1502 1497 1498 1499 1501 1503 1506 1508 1510 1512 1513 1514 1516 1517 1519 1521 1523 1524 1526 1527 1528 1529 1530 1531 1532 1533 1534 1535 1535 1536 1537 1538 1539 1540 1541 1542 1543 1544 1545 1545 1546 1547
1508 1507 1504 1500 1489 1489 1494 1496 1495 1497 1498 1499 1501 1503 1505 1507 1509 1511 1513 1515 1517 1519 1520 1522 1524 1525 1526 1528 1529 1530 1531 1532 1533 1534 1534 1535 1536 1537 1538 1539 1540 1541 1542 1543 1543 1544 1545 1546 1546
1492 1498 1502 1495 1486 1491 1494 1495 1494 1495 1497 1498 1500 1501 1503 1505 1508 1510 1512 1514 1516 1518 1520 1521 1523 1524 1526 1527 1528 1529 1530 1531 1532 1533 1534 1535 1536 1537 1538 1539 1540 1541 1541 1542 1543 1543 1544 1545 1545
1488 1497 1499 1492 1484 1490 1495 1495 1491 1492 1493 1494 1497 1498 1501 1504 1507 1509 1510 1513 1514 1516 1518 1520 1522 1523 1525 1526 1528 1529 1530 1531 1532 1533 1533 1534 1535 1536 1537 1538 1539 1540 1541 1541 1542 1543 1543 1544 1545
1486 1492 1493 1493 1487 1489 1495 1501 1495 1491 1491 1493 1494 1496 1498 1500 1503 1506 1508 1510 1512 1515 1517 1518 1520 1522 1524 1525 1527 1528 1529 1530 1531 1532 1533 1534 1535 1536 1537 1538 1539 1539 1540 1541 1541 1542 1543 1543 1544
1488 1477 1479 1484 1496 1506 1502 1520 1500 1491 1490 1490 1491 1493 1495 1497 1500 1502 1505 1508 1510 1512 1515 1517 1519 1521 1523 1524 1526 1527 1528 1528 1530 1531 1532 1533 1534 1535 1536 1537 1538 1539 1540 1540 1541 1541 1542 1542 1543
1476 1469 1475 1481 1493 1505 1504 1515 1506 1491 1491 1488 1487 1488 1490 1492 1495 1498 1501 1504 1507 1510 1513 1515 1518 1520 1522 1523 1525 1526 1527 1528 1529 1531 1532 1533 1534 1534 1535 1536 1537 1538 1539 1539 1540 1540 1541 1541 1542
1466 1473 1480 1490 1502 1519 1508 1512 1509 1493 1485 1481 1482 1484 1486 1489 1492 1495 1499 1502 1505 1508 1511 1514 1516 1518 1520 1522 1524 1525 1526 1527 1528 1530 1531 1532 1533 1533 1534 1535 1536 1537 1537 1538 1539 1539 1540 1540 1540
1468 1489 1513 1518 1527 1523 1503 1505 1501 1478 1472 1473 1476 1479 1482 1485 1489 1492 1496 1499 1502 1505 1508 1511 1513 1516 1518 1520 1522 1523 1525 1526 1527 1528 1529 1530 1531 1532 1533 1534 1534 1535 1536 1537 1537 1538 1538 1538 1538
1471 1484 1512 1526 1530 1521 1505 1505 1487 1468 1467 1468 1471 1475 1478 1482 1485 1488 1491 1494 1498 1502 1505 1508 1511 1513 1516 1518 1520 1522 1524 1525 1526 1527 1528 1529 1530 1531 1532 1532 1533 1534 1535 1535 1536 1536 1536 1537 1537
1469 1478 1481 1503 1513 1521 1512 1497 1479 1467 1467 1468 1471 1474 1477 1479 1482 1485 1489 1492 1495 1499 1502 1505 1508 1511 1513 1516 1518 1520 1522 1523 1524 1526 1527 1528 1528 1529 1530 1531 1531 1532 1533 1533 1534 1534 1535 1535 1535
1458 1467 1486 1503 1520 1526 1514 1503 1495 1477 1471 1469 1470 1473 1475 1478 1481 1484 1487 1489 1493 1496 1499 1503 1506 1508 1511 1514 1516 1518 1520 1522 1523 1524 1525 1526 1526 1527 1528 1529 1530 1530 1531 1531 1532 1532 1532 1532 1532
1464 1469 1480 1496 1502 1520 1524 1510 1475 1472 1468 1468 1469 1471 1473 1476 1478 1482 1485 1488 1491 1495 1498 1501 1503 1506 1509 1512 1514 1516 1518 1519 1521 1522 1522 1523 1524 1525 1526 1526 1527 1528 1529 1529 1530 1530 1530 1530 1530
1457 1465 1478 1496 1503 1506 1512 1504 1466 1465 1465 1466 1468 1469 1471 1474 1477 1480 1483 1486 1490 1493 1495 1498 1501 1504 1507 1509 1512 1514 1515 1517 1518 1519 1520 1521 1521 1522 1523 1524 1525 1526 1526 1527 1527 1527 1527 1527 1527